Tracking 19286 objects as of 19-Nov-2018
HD Live streaming from Space Station
objects crossing your sky now

USA 7

Track USA 7 now!
USA 7 is classified as:


NORAD ID: 15453
Int'l Code: 1984-129A
Perigee: 36,179.7 km
Apogee: 36,214.5 km
Inclination: 15.6 °
Period: 1,456.8 minutes
Semi major axis: 42568 km
RCS: Unknown
Launch date: December 22, 1984
Source: United States (US)
Launch site: AIR FORCE EASTERN TEST RANGE (AFETR)
aabbcc
Your satellite tracking list
Your tracking list is empty




NASA's NSSDC Master Catalog

Two Line Element Set (TLE):
1 15453U 84129A   18265.95087639 0.00000000  00000-0  00000-0 0    04
2 15453  15.5636 346.0156 0004090 283.7491  76.1952  0.98849944    03
Source of the keplerian elements: McCants